Hourly Weather Rukino

Today, 22 April, Thursday

Time Temperature Precipitation Wind Pressure Humidity
00:00 +2°C° 0 mm 3 mps 737 mmHg 90%
01:00 +2°C° 0 mm 3 mps 737 mmHg 91%
02:00 +2°C° 0 mm 3 mps 737 mmHg 93%
03:00 +2°C° 0 mm 3 mps 737 mmHg 94%
04:00 +2°C° 0 mm 3 mps 737 mmHg 96%
05:00 +2°C° 0 mm 3 mps 737 mmHg 97%
06:00 +4°C° 0 mm 3 mps 738 mmHg 91%
07:00 +6°C° 0 mm 4 mps 738 mmHg 85%
08:00 +7°C° 0 mm 4 mps 738 mmHg 80%
09:00 +10°C° 0.3 mm 4 mps 738 mmHg 74%
10:00 +10°C° 0.3 mm 5 mps 738 mmHg 69%
11:00 +13°C° 0.3 mm 5 mps 738 mmHg 64%
12:00 +13°C° 0.6 mm 6 mps 738 mmHg 62%
13:00 +14°C° 0.6 mm 6 mps 738 mmHg 60%
14:00 +14°C° 0.6 mm 6 mps 738 mmHg 57%
15:00 +14°C° 0.3 mm 6 mps 738 mmHg 58%
16:00 +14°C° 0.3 mm 6 mps 738 mmHg 58%
17:00 +13°C° 0.3 mm 5 mps 737 mmHg 59%
18:00 +12°C° 0.3 mm 4 mps 738 mmHg 68%
19:00 +10°C° 0.3 mm 4 mps 738 mmHg 77%
20:00 +8°C° 0.3 mm 3 mps 738 mmHg 85%
21:00 +8°C° 0.3 mm 3 mps 738 mmHg 86%
22:00 +8°C° 0.3 mm 4 mps 737 mmHg 88%
23:00 +8°C° 0.3 mm 5 mps 737 mmHg 89%

Tomorrow, 23 April, Friday

Time Temperature Precipitation Wind Pressure Humidity
00:00 +7°C° 0.2 mm 4 mps 737 mmHg 89%
01:00 +7°C° 0.2 mm 4 mps 737 mmHg 90%
02:00 +7°C° 0.2 mm 3 mps 737 mmHg 91%
03:00 +7°C° 0.4 mm 3 mps 737 mmHg 91%
04:00 +7°C° 0.4 mm 3 mps 737 mmHg 92%
05:00 +5°C° 0.4 mm 3 mps 737 mmHg 92%
06:00 +4°C° 1.3 mm 3 mps 738 mmHg 93%
07:00 +3°C° 1.3 mm 3 mps 738 mmHg 94%
08:00 +2°C° 1.3 mm 3 mps 739 mmHg 94%
09:00 +4°C° 0.1 mm 3 mps 739 mmHg 85%
10:00 +5°C° 0.1 mm 4 mps 739 mmHg 75%
11:00 +6°C° 0.1 mm 5 mps 739 mmHg 66%
12:00 +7°C° 0 mm 4 mps 739 mmHg 62%
13:00 +7°C° 0 mm 4 mps 739 mmHg 59%
14:00 +8°C° 0 mm 4 mps 739 mmHg 55%
15:00 +7°C° 0.1 mm 4 mps 739 mmHg 58%
16:00 +7°C° 0.1 mm 4 mps 739 mmHg 60%
17:00 +7°C° 0.1 mm 4 mps 739 mmHg 63%
18:00 +5°C° 0 mm 3 mps 739 mmHg 68%
19:00 +4°C° 0 mm 3 mps 739 mmHg 73%
20:00 +4°C° 0 mm 2 mps 739 mmHg 78%
21:00 +4°C° 0 mm 2 mps 738 mmHg 80%
22:00 +3°C° 0 mm 2 mps 738 mmHg 82%
23:00 +3°C° 0 mm 2 mps 738 mmHg 83%

Day after tomorrow, 24 April, Saturday

Time Temperature Precipitation Wind Pressure Humidity
00:00 +2°C° 0 mm 2 mps 738 mmHg 85%
01:00 +1°C° 0 mm 2 mps 738 mmHg 87%
02:00 +1°C° 0 mm 2 mps 738 mmHg 88%
03:00 -1°C° 0 mm 2 mps 738 mmHg 89%
04:00 -1°C° 0 mm 2 mps 738 mmHg 89%
05:00 -1°C° 0 mm 2 mps 737 mmHg 89%
06:00 0°C° 0 mm 3 mps 738 mmHg 82%
07:00 +1°C° 0 mm 3 mps 738 mmHg 75%
08:00 +3°C° 0 mm 4 mps 738 mmHg 68%
09:00 +3°C° 0.2 mm 4 mps 738 mmHg 63%
10:00 +3°C° 0.2 mm 5 mps 738 mmHg 59%
11:00 +5°C° 0.2 mm 5 mps 738 mmHg 54%
12:00 +4°C° 0.1 mm 6 mps 738 mmHg 52%
13:00 +4°C° 0.1 mm 6 mps 737 mmHg 50%
14:00 +4°C° 0.1 mm 6 mps 737 mmHg 48%
15:00 +4°C° 0.2 mm 6 mps 738 mmHg 54%
16:00 +4°C° 0.2 mm 6 mps 738 mmHg 60%
17:00 +3°C° 0.2 mm 6 mps 738 mmHg 66%
18:00 +2°C° 0 mm 5 mps 738 mmHg 71%
19:00 +1°C° 0 mm 4 mps 738 mmHg 75%
20:00 +1°C° 0 mm 3 mps 738 mmHg 80%
21:00 +1°C° 0 mm 3 mps 738 mmHg 83%
22:00 0°C° 0 mm 3 mps 738 mmHg 85%
23:00 0°C° 0 mm 3 mps 738 mmHg 88%

25 April, Sunday

Time Temperature Precipitation Wind Pressure Humidity
00:00 0°C° 0 mm 3 mps 738 mmHg 89%
01:00 -2°C° 0 mm 4 mps 738 mmHg 90%
02:00 -2°C° 0 mm 4 mps 738 mmHg 90%
03:00 -2°C° 0 mm 4 mps 738 mmHg 91%
04:00 -2°C° 0 mm 4 mps 737 mmHg 91%
05:00 -2°C° 0 mm 4 mps 737 mmHg 91%
06:00 -1°C° 0 mm 4 mps 737 mmHg 85%
07:00 -1°C° 0 mm 5 mps 737 mmHg 80%
08:00 0°C° 0 mm 5 mps 738 mmHg 75%
09:00 0°C° 0 mm 5 mps 738 mmHg 74%
10:00 0°C° 0 mm 5 mps 738 mmHg 74%
11:00 +1°C° 0 mm 5 mps 738 mmHg 73%
12:00 +1°C° 0.3 mm 5 mps 738 mmHg 71%
13:00 +2°C° 0.3 mm 6 mps 738 mmHg 68%
14:00 +3°C° 0.3 mm 6 mps 738 mmHg 66%
15:00 +3°C° 0.2 mm 6 mps 738 mmHg 66%
16:00 +3°C° 0.2 mm 5 mps 738 mmHg 66%
17:00 +3°C° 0.2 mm 5 mps 738 mmHg 66%
18:00 +2°C° 0 mm 5 mps 738 mmHg 71%
19:00 +1°C° 0 mm 4 mps 738 mmHg 77%
20:00 0°C° 0 mm 3 mps 738 mmHg 82%
21:00 0°C° 0 mm 3 mps 738 mmHg 85%
22:00 0°C° 0 mm 3 mps 738 mmHg 87%
23:00 -1°C° 0 mm 3 mps 738 mmHg 89%

26 April, Monday

Time Temperature Precipitation Wind Pressure Humidity
00:00 -1°C° 0 mm 3 mps 738 mmHg 90%
01:00 -2°C° 0 mm 3 mps 738 mmHg 91%
02:00 -2°C° 0 mm 3 mps 738 mmHg 92%
03:00 -2°C° 0 mm 3 mps 738 mmHg 93%
04:00 -2°C° 0 mm 3 mps 738 mmHg 93%
05:00 -2°C° 0 mm 3 mps 738 mmHg 93%
06:00 -2°C° 0 mm 3 mps 738 mmHg 88%
07:00 -2°C° 0 mm 4 mps 739 mmHg 83%
08:00 -1°C° 0 mm 4 mps 739 mmHg 78%
09:00 -1°C° 0 mm 4 mps 739 mmHg 75%
10:00 -1°C° 0 mm 4 mps 739 mmHg 71%
11:00 0°C° 0 mm 5 mps 739 mmHg 68%
12:00 0°C° 0 mm 5 mps 739 mmHg 64%
13:00 +1°C° 0 mm 5 mps 739 mmHg 59%
14:00 +2°C° 0 mm 5 mps 739 mmHg 55%
15:00 +2°C° 0 mm 5 mps 739 mmHg 55%
16:00 +3°C° 0 mm 4 mps 739 mmHg 56%
17:00 +3°C° 0 mm 4 mps 739 mmHg 57%
18:00 +2°C° 0 mm 3 mps 739 mmHg 64%
19:00 +1°C° 0 mm 3 mps 739 mmHg 71%
20:00 -1°C° 0 mm 2 mps 739 mmHg 78%
21:00 -1°C° 0 mm 2 mps 739 mmHg 80%
22:00 -1°C° 0 mm 2 mps 739 mmHg 82%
23:00 -2°C° 0 mm 3 mps 739 mmHg 84%

27 April, Tuesday

Time Temperature Precipitation Wind Pressure Humidity
00:00 -2°C° 0 mm 3 mps 739 mmHg 82%
01:00 -1°C° 0 mm 3 mps 739 mmHg 79%
02:00 -1°C° 0 mm 3 mps 739 mmHg 77%
03:00 -1°C° 0 mm 3 mps 739 mmHg 78%
04:00 -2°C° 0 mm 4 mps 739 mmHg 78%
05:00 -2°C° 0 mm 4 mps 739 mmHg 79%
06:00 -1°C° 0 mm 4 mps 739 mmHg 76%
07:00 0°C° 0 mm 5 mps 740 mmHg 74%
08:00 +1°C° 0 mm 5 mps 740 mmHg 72%
09:00 +2°C° 0 mm 5 mps 740 mmHg 70%
10:00 +3°C° 0 mm 5 mps 740 mmHg 67%
11:00 +5°C° 0 mm 5 mps 740 mmHg 64%
12:00 +5°C° 0 mm 5 mps 740 mmHg 64%
13:00 +5°C° 0 mm 4 mps 741 mmHg 64%
14:00 +5°C° 0 mm 4 mps 741 mmHg 64%
15:00 +5°C° 0 mm 3 mps 741 mmHg 67%
16:00 +5°C° 0 mm 3 mps 741 mmHg 70%
17:00 +6°C° 0 mm 2 mps 741 mmHg 73%
18:00 +5°C° 0 mm 2 mps 742 mmHg 75%
19:00 +6°C° 0 mm 1 mps 742 mmHg 76%
20:00 +5°C° 0 mm 1 mps 742 mmHg 77%
21:00 +5°C° 0 mm 1 mps 742 mmHg 76%
22:00 +5°C° 0 mm 1 mps 742 mmHg 74%
23:00 +5°C° 0 mm 1 mps 743 mmHg 73%
Show more